Regional Weather Roundup
Issued by NWS

Home | Current Version | Previous Version | Graphics & Text | Print | Product List | Glossary On
Versions: 1 2 3 4 5 6 7 8 9 10 11 12 13 14 15 16 17 18 19 20 21 22 23 24 25 26 27 28 29 30 31 32 33 34 35 36 37 38 39 40 41 42 43 44 45 46 47 48 49 50
844
ASUS45 KCYS 191010
RWRWY

WYOMING REGIONAL WEATHER ROUNDUP
NATIONAL WEATHER SERVICE CHEYENNE WY
300 AM MST THU JAN 19 2017

NOTE:  "FAIR" INDICATES FEW OR NO CLOUDS BELOW 12,000 FEET
WITH NO SIGNIFICANT WEATHER AND/OR OBSTRUCTIONS TO VISIBILITY.

WYZ001-191100-
YELLOWSTONE NATIONAL PARK

CITY           SKY/WX    TMP DP  RH WIND       PRES   REMARKS
LK YELLOWSTONE   N/A     15  13  91 CALM      29.74F
W YELLOWSTONE  NOT AVBL

$$
WYZ002>013-054>058-071-098>099-191100-
NORTHERN WYOMING

CITY           SKY/WX    TMP DP  RH WIND       PRES   REMARKS
JACKSON        CLOUDY    12   9  85 CALM      29.78F
CODY           FAIR      21  14  74 VRB5      29.60F WCI  15
GREYBULL       FAIR       1  -3  83 W3        29.64F
WORLAND        FAIR       9   7  92 CALM      29.63F
SHERIDAN       FAIR      17  13  84 SE7       29.54F WCI   8
BUFFALO        FAIR      38  15  39 SW7       29.57S WCI  33
GILLETTE       FAIR      33  19  56 SW18      29.55F WCI  22
HULETT         FAIR      28  19  69 MISG      29.58F
NEWCASTLE      FAIR      27  18  69 N7        29.62F WCI  19

$$
WYZ014>020-022>026-101>103-191100-
CENTRAL WYOMING

CITY           SKY/WX    TMP DP  RH WIND       PRES   REMARKS
BIG PINEY      CLOUDY     2  -1  88 CALM      29.80F
PINEDALE       CLOUDY     5   1  85 NW3       29.80F
DUBOIS         NOT AVBL
LANDER         FAIR       5   2  87 S3        29.69F
RIVERTON       FAIR       6   4  91 E5        29.71F WCI  -3
CASPER         FAIR      31  19  61 SW25G35   29.67F WCI  17
DOUGLAS        FAIR      29  16  58 N7        29.63F WCI  22

$$
WYZ021-027>030-104>119-191100-
SOUTHERN WYOMING

CITY           SKY/WX    TMP DP  RH WIND       PRES   REMARKS
EVANSTON       CLOUDY    29   9  43 S7        29.76F WCI  22
ROCK SPRINGS   FAIR       6   1  80 CALM      29.79F
RAWLINS        FAIR      25  16  68 SW12      29.81F WCI  14
LARAMIE        FAIR       5   2  87 CALM      29.74F
CHEYENNE       FAIR      37  14  38 NW14G23   29.64S WCI  28
TORRINGTON     FAIR      31  17  56 NW7       29.61F WCI  24

$$




USA.gov is the U.S. government's official web portal to all federal, state and local government web resources and services.